Date String (YYYY-MM-DD hh:mm:ss) UTC,Instrument flags,Ambient pressure (hPa),Sample flow (lpm),Bypass flow (lpm),Sample temperature (°C),Ambient temperature (°C),ASC tube jacket temperature (°C),LED temperature (°C),Box temperature (°C),Sample RH (%),Span deviation,Mass concentration (μg/m³),Mass concentration (μg/m³),Mass concentration (μg/m³)
DateTimeUTC,F1_M11,P_M11,Q1_M11,Q2_M11,T1_M11,T2_M11,T3_M11,T4_M11,T5_M11,U1_M11,ZSPAN_M11,X2_M11,X0_M11,X1_M11
2021-12-05 07:00:00,,0820.9,5.01,0.00,26.5,25.5,00.0,35.7,28.2,09.4,0000.0,0001.09,0005.92,0000.52
2021-12-05 07:01:00,,0820.9,5.00,0.00,26.5,25.5,00.0,35.7,28.2,09.5,0000.0,0001.09,0004.46,0000.54
2021-12-05 07:02:00,,0821.0,4.99,0.00,26.5,25.5,00.0,35.6,28.2,09.5,0000.0,0001.08,0004.32,0000.54
2021-12-05 07:03:00,,0821.1,5.02,0.00,26.5,25.5,00.0,35.6,28.1,09.5,0000.0,0001.13,0004.44,0000.55
2021-12-05 07:04:00,,0820.9,4.99,0.00,26.5,25.5,00.0,35.6,28.1,09.5,0000.0,0001.19,0003.63,0000.57
2021-12-05 07:05:00,,0820.9,5.00,0.00,26.4,25.4,00.0,35.6,28.1,09.3,0000.0,0001.21,0003.42,0000.57
2021-12-05 07:06:00,,0820.9,5.00,0.00,26.4,25.4,00.0,35.6,28.1,09.2,0000.0,0001.17,0003.35,0000.56
2021-12-05 07:07:00,,0820.8,4.99,0.00,26.4,25.4,00.0,35.6,28.1,09.4,0000.0,0001.15,0003.58,0000.56
2021-12-05 07:08:00,,0820.8,5.00,0.00,26.4,25.5,00.0,35.5,28.0,09.2,0000.0,0001.11,0003.15,0000.56
2021-12-05 07:09:00,,0820.9,5.02,0.00,26.4,25.4,00.0,35.5,28.0,09.1,0000.0,0001.12,0003.13,0000.56
2021-12-05 07:10:00,,0820.8,4.99,0.00,26.3,25.4,00.0,35.5,27.9,09.3,0000.0,0001.12,0003.24,0000.56
2021-12-05 07:11:00,,0820.7,5.01,0.00,26.3,25.4,00.0,35.5,27.9,09.1,0000.0,0001.10,0003.60,0000.56
2021-12-05 07:12:00,,0820.7,5.00,0.00,26.3,25.4,00.0,35.5,27.8,08.9,0000.0,0001.12,0004.75,0000.55
2021-12-05 07:13:00,,0820.7,5.01,0.00,26.3,25.4,00.0,35.4,27.8,08.8,0000.0,0001.07,0004.55,0000.54
2021-12-05 07:14:00,,0820.7,4.99,0.00,26.2,25.4,00.0,35.4,27.9,09.0,0000.0,0001.06,0004.45,0000.54
2021-12-05 07:15:00,,0820.8,5.00,0.00,26.2,25.4,00.0,35.4,27.9,08.8,0000.0,0000.97,0004.21,0000.53
2021-12-05 07:16:00,,0820.8,5.01,0.00,26.2,25.3,00.0,35.4,27.8,08.8,0000.0,0000.93,0004.09,0000.52
2021-12-05 07:17:00,,0820.7,5.01,0.00,26.2,25.3,00.0,35.4,27.8,08.7,0000.0,0000.94,0005.61,0000.52
2021-12-05 07:18:00,,0820.7,5.00,0.00,26.2,25.3,00.0,35.3,27.8,08.5,0000.0,0000.91,0005.52,0000.51
2021-12-05 07:19:00,,0820.7,4.99,0.00,26.1,25.3,00.0,35.3,27.8,08.6,0000.0,0000.90,0005.20,0000.49
2021-12-05 07:20:00,,0820.7,5.02,0.00,26.1,25.3,00.0,35.3,27.7,08.6,0000.0,0000.89,0005.19,0000.49
2021-12-05 07:21:00,,0820.7,4.99,0.00,26.1,25.2,00.0,35.3,27.8,08.6,0000.0,0000.87,0005.30,0000.48
2021-12-05 07:22:00,,0820.8,5.00,0.00,26.1,25.2,00.0,35.3,27.7,08.5,0000.0,0000.84,0004.93,0000.48
2021-12-05 07:23:00,,0820.8,5.01,0.00,26.1,25.2,00.0,35.3,27.7,08.6,0000.0,0000.81,0003.74,0000.48
2021-12-05 07:24:00,,0820.7,5.00,0.00,26.1,25.2,00.0,35.3,27.7,08.6,0000.0,0000.81,0003.56,0000.47
2021-12-05 07:25:00,,0820.7,5.00,0.00,26.1,25.2,00.0,35.2,27.7,08.6,0000.0,0000.77,0003.49,0000.46
2021-12-05 07:26:00,,0820.7,5.00,0.00,26.1,25.2,00.0,35.2,27.7,08.6,0000.0,0000.74,0003.45,0000.46
2021-12-05 07:27:00,,0820.7,5.00,0.00,26.1,25.2,00.0,35.2,27.7,08.5,0000.0,0000.75,0003.50,0000.46
2021-12-05 07:28:00,,0820.7,4.99,0.00,26.1,25.3,00.0,35.2,27.7,08.5,0000.0,0000.75,0001.98,0000.47
2021-12-05 07:29:00,,0820.6,5.01,0.00,26.1,25.3,00.0,35.2,27.7,08.4,0000.0,0000.77,0001.81,0000.47
2021-12-05 07:30:00,,0820.6,5.00,0.00,26.1,25.2,00.0,35.2,27.8,08.3,0000.0,0000.75,0001.75,0000.48
2021-12-05 07:31:00,,0820.6,5.01,0.00,26.1,25.2,00.0,35.2,27.8,08.3,0000.0,0000.72,0001.64,0000.48
2021-12-05 07:32:00,,0820.6,4.99,0.00,26.1,25.3,00.0,35.2,27.7,08.3,0000.0,0000.73,0001.37,0000.48
2021-12-05 07:33:00,,0820.7,5.01,0.00,26.1,25.2,00.0,35.2,27.7,08.4,0000.0,0000.76,0001.97,0000.48
2021-12-05 07:34:00,,0820.7,4.99,0.00,26.1,25.2,00.0,35.2,27.7,08.4,0000.0,0000.75,0002.11,0000.48
2021-12-05 07:35:00,,0820.6,5.02,0.00,26.0,25.2,00.0,35.2,27.7,08.4,0000.0,0000.80,0002.18,0000.49
2021-12-05 07:36:00,,0820.6,4.99,0.00,26.0,25.2,00.0,35.1,27.7,08.4,0000.0,0000.80,0002.16,0000.49
2021-12-05 07:37:00,,0820.6,5.00,0.00,26.0,25.2,00.0,35.1,27.7,08.4,0000.0,0000.80,0002.19,0000.49
2021-12-05 07:38:00,,0820.6,4.99,0.00,26.1,25.3,00.0,35.1,27.8,08.4,0000.0,0000.80,0002.17,0000.49
2021-12-05 07:39:00,,0820.6,5.01,0.00,26.1,25.3,00.0,35.1,27.8,08.4,0000.0,0000.80,0002.17,0000.49
2021-12-05 07:40:00,,0820.6,5.00,0.00,26.1,25.3,00.0,35.1,27.7,08.4,0000.0,0000.82,0002.28,0000.50
2021-12-05 07:41:00,,0820.6,5.00,0.00,26.1,25.3,00.0,35.1,27.7,08.3,0000.0,0000.84,0002.54,0000.51
2021-12-05 07:42:00,,0820.6,5.00,0.00,26.1,25.3,00.0,35.1,27.7,08.3,0000.0,0000.90,0002.83,0000.52
2021-12-05 07:43:00,,0820.6,4.99,0.00,26.1,25.3,00.0,35.1,27.8,08.1,0000.0,0000.91,0002.99,0000.53
2021-12-05 07:44:00,,0820.6,5.01,0.00,26.1,25.2,00.0,35.1,27.8,08.1,0000.0,0000.90,0003.06,0000.54
2021-12-05 07:45:00,,0820.6,5.00,0.00,26.1,25.2,00.0,35.1,27.9,08.2,0000.0,0000.90,0002.70,0000.55
2021-12-05 07:46:00,,0820.6,5.00,0.00,26.1,25.2,00.0,35.1,27.8,08.2,0000.0,0000.90,0002.79,0000.57
2021-12-05 07:47:00,,0820.6,5.00,0.00,26.1,25.2,00.0,35.1,27.7,08.1,0000.0,0000.91,0002.82,0000.58
2021-12-05 07:48:00,,0820.6,5.01,0.00,26.1,25.2,00.0,35.1,27.7,08.1,0000.0,0000.94,0002.87,0000.59
2021-12-05 07:49:00,,0820.6,4.99,0.00,26.1,25.2,00.0,35.1,27.7,08.1,0000.0,0000.97,0002.95,0000.61
2021-12-05 07:50:00,,0820.6,4.98,0.00,26.1,25.2,00.0,35.1,27.7,08.0,0000.0,0000.99,0003.10,0000.63
2021-12-05 07:51:00,,0820.6,5.00,0.00,26.1,25.2,00.0,35.1,27.7,08.0,0000.0,0000.99,0003.10,0000.64
2021-12-05 07:52:00,,0820.5,4.99,0.00,26.1,25.1,00.0,35.1,27.7,08.0,0000.0,0000.99,0002.98,0000.66
2021-12-05 07:53:00,,0820.5,5.00,0.00,26.1,25.2,00.0,35.1,27.8,08.0,0000.0,0000.97,0002.72,0000.67
2021-12-05 07:54:00,,0820.5,5.00,0.00,26.1,25.2,00.0,35.1,27.9,08.0,0000.0,0001.02,0003.01,0000.69
2021-12-05 07:55:00,,0820.5,5.01,0.00,26.1,25.2,00.0,35.1,27.9,08.0,0000.0,0001.01,0002.83,0000.69
2021-12-05 07:56:00,,0820.6,5.00,0.00,26.1,25.2,00.0,35.1,27.9,08.0,0000.0,0001.02,0002.79,0000.71
2021-12-05 07:57:00,,0820.5,5.00,0.00,26.1,25.2,00.0,35.1,27.8,08.0,0000.0,0001.00,0003.38,0000.71
2021-12-05 07:58:00,,0820.6,5.00,0.00,26.1,25.3,00.0,35.1,27.8,08.0,0000.0,0001.00,0003.95,0000.73
2021-12-05 07:59:00,,0820.6,5.00,0.00,26.1,25.3,00.0,35.1,27.8,08.1,0000.0,0001.02,0003.99,0000.75
